Kenai, AK

5:04 PM AKDT on October 22, 2017 (GMT -0800)
Kenai Municipal

Weather History for PAEN - October, 2013

Change the Weather History Date:

Sunday, October 6, 2013

  Actual Average Record
Temperature  
Mean Temperature 42 °F -  
Max Temperature 46 °F 47 °F 57 °F (1993)
Min Temperature 37 °F 33 °F 13 °F (1958)
Degree Days  
Heating Degree Days 24    
Moisture  
Dew Point 40 °F    
Average Humidity 93    
Maximum Humidity 100    
Minimum Humidity 76    
Precipitation  
Precipitation 0.08 in - - ()
Sea Level Pressure  
Sea Level Pressure 29.72 in    
Wind  
Wind Speed 6 mph (South)    
Max Wind Speed 21 mph    
Max Gust Speed 26 mph    
Visibility 9 miles    
Events Rain    
Averages and records for this station are not official NWS values.
T = Trace of Precipitation, MM = Missing Value Source: NWS Daily Summary

Daily Weather History Graph

Daily Weather History Graph

Search for Another Location

Airport or City:

Trip Planner

Search our weather history database for the weather conditions in past years. The results will help you decide how hot, cold, wet, or windy it might be!

Date:

Astronomy

Oct. 06, 2013 Rise Set
Actual Time 8:24 AM AKDT 7:20 PM AKDT
Civil Twilight 7:42 AM AKDT 8:02 PM AKDT
Nautical Twilight 6:52 AM AKDT 8:51 PM AKDT
Astronomical Twilight 6:01 AM AKDT 9:42 PM AKDT
Moon 11:00 AM AKDT (10/6) 7:42 PM AKDT (10/6)
Length of Visible Light 12h 20m
Length of Day
10h 55m
Waxing Crescent, 4% of the Moon is Illuminated
Oct 6
Waxing Crescent
Oct 11
First Quarter
Oct 18
Full
Oct 26
Last Quarter
Nov 3
New

Hourly Weather History & Observations

Time (AKDT) Temp. Windchill Dew Point Humidity Pressure Visibility Wind Dir Wind Speed Gust Speed Precip Events Conditions
12:53 AM 37.9 °F 35.5 °F 37.9 °F 100% 29.73 in 10.0 mi ENE 3.5 mph - N/A   Overcast
1:53 AM 37.9 °F - 37.0 °F 97% 29.73 in 10.0 mi Calm Calm - N/A   Overcast
2:53 AM 39.0 °F - 37.9 °F 96% 29.73 in 10.0 mi Calm Calm - N/A   Overcast
3:53 AM 37.9 °F - 37.0 °F 97% 29.73 in 10.0 mi Calm Calm - N/A   Overcast
4:53 AM 39.0 °F - 37.0 °F 93% 29.73 in 10.0 mi Calm Calm - N/A   Overcast
5:53 AM 39.0 °F 36.8 °F 37.9 °F 96% 29.73 in 10.0 mi SSE 3.5 mph - N/A   Overcast
6:53 AM 39.9 °F - 37.9 °F 93% 29.73 in 10.0 mi Calm Calm - 0.00 in Rain Light Rain
7:53 AM 39.0 °F - 37.9 °F 96% 29.73 in 9.0 mi Calm Calm - 0.02 in Rain Light Rain
7:56 AM 39.2 °F - 37.4 °F 93% 29.72 in 8.0 mi Calm Calm - 0.00 in Rain Light Rain
8:35 AM 39.2 °F - 39.2 °F 100% 29.72 in 10.0 mi Calm Calm - 0.02 in Rain Light Rain
8:53 AM 39.0 °F 36.8 °F 39.0 °F 100% 29.74 in 9.0 mi South 3.5 mph - 0.02 in Rain Light Rain
9:53 AM 39.9 °F 35.8 °F 39.0 °F 97% 29.74 in 7.0 mi SE 5.8 mph - 0.02 in Rain Light Rain
10:53 AM 39.9 °F 35.1 °F 39.9 °F 100% 29.73 in 10.0 mi SSE 6.9 mph - 0.00 in Rain Light Rain
11:09 AM 41.0 °F 36.4 °F 39.2 °F 93% 29.72 in 10.0 mi SSE 6.9 mph - 0.00 in Rain Light Rain
11:53 AM 42.1 °F 37.1 °F 39.9 °F 92% 29.73 in 10.0 mi SSE 8.1 mph - 0.01 in Rain Light Rain
12:11 PM 42.8 °F 36.6 °F 41.0 °F 93% 29.72 in 10.0 mi South 11.5 mph - 0.00 in Rain Light Rain
12:22 PM 42.8 °F 36.6 °F 42.8 °F 100% 29.72 in 2.5 mi South 11.5 mph - 0.00 in   Overcast
12:37 PM 41.0 °F 35.2 °F 41.0 °F 100% 29.72 in 5.0 mi SSE 9.2 mph - 0.00 in Rain Light Rain
12:53 PM 42.1 °F 36.1 °F 41.0 °F 96% 29.73 in 4.0 mi South 10.4 mph - 0.00 in Rain Light Rain
1:53 PM 43.0 °F 36.4 °F 42.1 °F 97% 29.71 in 10.0 mi SSW 12.7 mph - 0.01 in   Overcast
2:53 PM 45.0 °F 37.1 °F 44.1 °F 97% 29.70 in 10.0 mi SSW 19.6 mph - 0.00 in   Overcast
3:00 PM 44.6 °F 36.9 °F 44.6 °F 100% 29.69 in 10.0 mi SSW 18.4 mph 26.5 mph N/A   Overcast
3:53 PM 46.0 °F 38.5 °F 41.0 °F 83% 29.70 in 10.0 mi SSW 19.6 mph 24.2 mph N/A   Overcast
3:59 PM 46.4 °F 38.7 °F 41.0 °F 81% 29.69 in 10.0 mi SSW 20.7 mph - N/A   Overcast
4:53 PM 46.9 °F - 42.1 °F 83% 29.69 in 10.0 mi SSW 20.7 mph - N/A   Mostly Cloudy
4:55 PM 46.4 °F 38.7 °F 42.8 °F 87% 29.68 in 10.0 mi SSW 20.7 mph - N/A   Partly Cloudy
5:53 PM 46.0 °F 38.5 °F 39.0 °F 76% 29.68 in 10.0 mi SSW 19.6 mph - N/A   Partly Cloudy
6:53 PM 45.0 °F 40.1 °F 39.9 °F 82% 29.68 in 10.0 mi SSW 9.2 mph - N/A   Clear
7:53 PM 42.1 °F 38.4 °F 39.9 °F 92% 29.70 in 10.0 mi South 5.8 mph - N/A   Clear
8:53 PM 41.0 °F 37.1 °F 39.0 °F 93% 29.70 in 10.0 mi SSE 5.8 mph - N/A   Clear
9:53 PM 39.0 °F 32.8 °F 37.0 °F 93% 29.71 in 10.0 mi SSE 9.2 mph - N/A   Clear
10:53 PM 37.9 °F 34.4 °F 36.0 °F 93% 29.72 in 10.0 mi SSE 4.6 mph - N/A   Clear
11:53 PM 37.9 °F 33.5 °F 36.0 °F 93% 29.73 in 10.0 mi South 5.8 mph - N/A   Clear